Вернуться в каталог

STARLINK-32498

АктивенСвязьVLEO
NORAD 61966·PAYLOAD·🇺🇸 United States

Запущен Nov 14, 2024 с Cape Canaveral Space Force Station

Loading…

Ближайшие Пролёты (ближайшие 24 часа)

TLE

СвежийSource: CelesTrak SupGP

Эпоха: Sep 14, 2026, 23:00 UTC

1 61966C 24210H   26257.95881944 -.00037799  00000+0 -13691-2 0  2572
2 61966  43.0006 176.2537 0001215 263.4288 176.7848 15.27595968    15

Отслеживайте STARLINK-32498 в реальном времени с AllMySat

Download on the App Store